WMKJWBSB

Guest
Details From WMKJ - Johor Bahru Sultan Ismail
To WBSB - Brunei Intl
Flight Number -
Tags decoded
Created
Modified
Stats Distance 703 nm / 1,303 km
Max Altitude 0 ft / 0 m
Waypoints 2
Social Downloads 1
Likes 0
Share VATSIM

Download

Looking for another format? Having issues loading an existing format? Contact us
Advertisement - Login to hide

Notes

Requested: WMKJ - WBSB Unmatched points: -

Route

WMKJ WBSB

ID Type Via Altitude Latitude Longitude Leg Dist Tot Dist Heading (true) Name
O WMKJ APT - 0 ft / 0 m 1.64131˚ 103.66962˚ - 0 nm - Johor Bahru Sultan Ismail
O WBSB APT - 0 ft / 0 m 4.94417˚ 114.92833˚ 703 nm 703 nm 73° / 74° Brunei Intl

Altitude Profile

Advertisement - Login to hide

Weather


0- 5 10 15 20 25 30 35+ Temperature / ° C

Clouds and Precipitation
Forecast for 2018-05-26 00:00 UTC. Updated 6 hours ago

Ground ~20,000 ft ~40,000 ft Winds

WMKJ

Details ICAO WMKJ (JHB)
Name Johor Bahru Sultan Ismail
Region Malaysia (Peninsular Malaysia)
Timezone Asia/Kuala_Lumpur (UTC+8.0)
Stats Elevation 135 ft / 41 m (AMSL)
Location 1.641307° 103.669618°
Runways 1
Magnetic Variation 0.193° E

METAR

WMKJ 260500Z 03005KT 300V100 9999 FEW017CB SCT018 BKN280 32/27 Q1008

Decode

TAF

TAF TAF WMKJ 251700Z 2518/2618 VRB03KT 9999 FEW020 TEMPO 2606/2610 08008KT 5000 TSRA FEW015CB SCT018

Decode

Departure Runways

ID Width Length Bearing (true) Bearing (mag) Surface Threshold Offset Overrun Length
16 150 ft / 46 m 11,014 ft / 3,357 m 159.95° 159.76° Asphalt 0 ft / 0 m 200 ft / 61 m
34 150 ft / 46 m 11,014 ft / 3,357 m 339.95° 339.76° Asphalt 0 ft / 0 m 200 ft / 61 m

WBSB

Details ICAO WBSB (BWN)
Name Brunei Intl
Region Brunei and Malaysia
Timezone Asia/Brunei (UTC+8.0)
Stats Elevation 73 ft / 22 m (AMSL)
Location 4.944172° 114.928327°
Runways 1
Magnetic Variation 0.246° W

METAR

WBSB 260500Z 24005KT 9999 SCT016 BKN300 33/26 Q1007 NOSIG

Decode

TAF

TAF WBSB 252300Z 2600/2706 22006KT 9999 FEW015 FEW016CB BECMG 2603/2605 34010KT SCT016 FEW017CB TEMPO 2610/2614 3000 +TSRA SCT014 SCT015CB

Decode

Destination Runways

ID Width Length Bearing (true) Bearing (mag) Surface Threshold Offset Overrun Length
03 151 ft / 46 m 12,044 ft / 3,671 m 30.90° 31.15° Asphalt 0 ft / 0 m 69 ft / 21 m
21 151 ft / 46 m 12,044 ft / 3,671 m 210.90° 211.15° Asphalt 0 ft / 0 m 69 ft / 21 m

Approach Navaids

Runway Type Ident Frequency Range Bearing (true) Bearing (mag) Slope Elevation
03 Localiser BE 108.90 MHz 18 nm / 33 km 30.92° 31.17° - 73 ft / 22 m (AMSL)
03 Glidescope BE 108.90 MHz 10 nm / 19 km 30.90° 31.15° 3.00° 73 ft / 22 m (AMSL)
03 DME BE 108.90 MHz 18 nm / 33 km - - - 20 ft / 6 m (AMSL)
21 Localiser BI 109.70 MHz 18 nm / 33 km 210.90° 211.14° - 20 ft / 6 m (AMSL)
21 Glidescope BI 109.70 MHz 10 nm / 19 km 210.90° 211.15° 3.00° 73 ft / 22 m (AMSL)
21 DME BI 109.70 MHz 18 nm / 33 km - - - 73 ft / 22 m (AMSL)